| time (UTC) | temp C | wind direction | speed KPH | gust KPH | rain 1hr cm | rain 24hr cm | rain mn cm | humidity % | barometer mb |
| 20260906180939 | 37 | 164 | 0.0 | 3.2 | 0.00 | 0.00 | 0.00 | 47 | 1010.9 |
| 20260906180139 | 36 | 162 | 1.6 | 8.0 | 0.00 | 0.00 | 0.00 | 45 | 1011.0 |
| 20260906175339 | 36 | 150 | 1.6 | 8.0 | 0.00 | 0.00 | 0.00 | 45 | 1011.1 |
| 20260906174539 | 36 | 157 | 0.0 | 3.2 | 0.00 | 0.00 | 0.00 | 46 | 1011.3 |
| 20260906173738 | 36 | 184 | 1.6 | 8.0 | 0.00 | 0.00 | 0.00 | 47 | 1011.4 |
| 20260906172938 | 36 | 0 | 0.0 | 0.0 | 0.00 | 0.00 | 0.00 | 50 | 1011.6 |
| 20260906172140 | 35 | 184 | 1.6 | 9.7 | 0.00 | 0.00 | 0.00 | 49 | 1011.8 |
| 20260906171339 | 35 | 176 | 1.6 | 8.0 | 0.00 | 0.00 | 0.00 | 50 | 1011.7 |
| 20260906170539 | 36 | 163 | 1.6 | 8.0 | 0.00 | 0.00 | 0.00 | 48 | 1011.9 |
| 20260906165739 | 36 | 151 | 0.0 | 4.8 | 0.00 | 0.00 | 0.00 | 49 | 1011.9 |
| 20260906164938 | 36 | 145 | 1.6 | 6.4 | 0.00 | 0.00 | 0.00 | 50 | 1012.0 |
| 20260906164138 | 36 | 133 | 0.0 | 3.2 | 0.00 | 0.00 | 0.00 | 49 | 1012.1 |
| 20260906163340 | 35 | 152 | 0.0 | 1.6 | 0.00 | 0.00 | 0.00 | 51 | 1012.2 |
| 20260906162539 | 35 | 172 | 1.6 | 6.4 | 0.00 | 0.00 | 0.00 | 50 | 1012.1 |
| 20260906161739 | 35 | 173 | 0.0 | 6.4 | 0.00 | 0.00 | 0.00 | 51 | 1012.2 |
| 20260906160939 | 35 | 173 | 1.6 | 4.8 | 0.00 | 0.00 | 0.00 | 53 | 1012.1 |
| 20260906160138 | 35 | 167 | 1.6 | 8.0 | 0.00 | 0.00 | 0.00 | 53 | 1012.1 |
| 20260906155338 | 35 | 169 | 0.0 | 1.6 | 0.00 | 0.00 | 0.00 | 55 | 1012.0 |
| 20260906154540 | 33 | 170 | 1.6 | 9.7 | 0.00 | 0.00 | 0.00 | 56 | 1012.0 |
| 20260906153739 | 34 | 158 | 1.6 | 9.7 | 0.00 | 0.00 | 0.00 | 55 | 1011.9 |
| 20260906152939 | 34 | 0 | 0.0 | 0.0 | 0.00 | 0.00 | 0.00 | 56 | 1011.9 |
| 20260906152139 | 33 | 135 | 0.0 | 3.2 | 0.00 | 0.00 | 0.00 | 56 | 1011.9 |
| 20260906151338 | 33 | 144 | 0.0 | 1.6 | 0.00 | 0.00 | 0.00 | 57 | 1011.9 |
| 20260906150538 | 33 | 102 | 0.0 | 3.2 | 0.00 | 0.00 | 0.00 | 58 | 1011.9 |
| 20260906145738 | 32 | 101 | 0.0 | 3.2 | 0.00 | 0.00 | 0.00 | 59 | 1011.9 |
| 20260906144940 | 32 | 100 | 0.0 | 1.6 | 0.00 | 0.00 | 0.00 | 59 | 1012.0 |
| 20260906144139 | 32 | 90 | 0.0 | 1.6 | 0.00 | 0.00 | 0.00 | 60 | 1012.0 |
| 20260906143339 | 32 | 85 | 0.0 | 6.4 | 0.00 | 0.00 | 0.00 | 61 | 1012.1 |
| 20260906142539 | 31 | 0 | 0.0 | 0.0 | 0.00 | 0.00 | 0.00 | 63 | 1012.0 |
| 20260906141738 | 31 | 0 | 0.0 | 0.0 | 0.00 | 0.00 | 0.00 | 64 | 1012.0 |
| 20260906140938 | 30 | 0 | 0.0 | 0.0 | 0.00 | 0.00 | 0.00 | 65 | 1011.9 |
| 20260906140138 | 30 | 76 | 0.0 | 1.6 | 0.00 | 0.00 | 0.00 | 67 | 1011.9 |
| 20260906135340 | 29 | 76 | 0.0 | 1.6 | 0.00 | 0.00 | 0.00 | 68 | 1011.8 |
| 20260906134539 | 28 | 0 | 0.0 | 0.0 | 0.00 | 0.00 | 0.00 | 69 | 1011.9 |
| 20260906133739 | 28 | 0 | 0.0 | 0.0 | 0.00 | 0.00 | 0.00 | 70 | 1011.9 |
| 20260906132939 | 27 | 0 | 0.0 | 0.0 | 0.00 | 0.00 | 0.00 | 72 | 1011.8 |
| 20260906132139 | 27 | 0 | 0.0 | 0.0 | 0.00 | 0.00 | 0.00 | 73 | 1011.7 |
| 20260906131338 | 26 | 0 | 0.0 | 0.0 | 0.00 | 0.00 | 0.00 | 74 | 1011.6 |
| 20260906130538 | 26 | 0 | 0.0 | 0.0 | 0.00 | 0.00 | 0.00 | 76 | 1011.5 |
| 20260906125740 | 26 | 0 | 0.0 | 0.0 | 0.00 | 0.00 | 0.00 | 76 | 1011.5 |
| 20260906124939 | 26 | 0 | 0.0 | 0.0 | 0.00 | 0.00 | 0.00 | 75 | 1011.4 |
| 20260906124139 | 25 | 0 | 0.0 | 0.0 | 0.00 | 0.00 | 0.00 | 76 | 1011.2 |
| 20260906123339 | 25 | 0 | 0.0 | 0.0 | 0.00 | 0.00 | 0.00 | 76 | 1011.1 |
| 20260906122538 | 25 | 0 | 0.0 | 0.0 | 0.00 | 0.00 | 0.00 | 75 | 1011.0 |
| 20260906121740 | 26 | 0 | 0.0 | 0.0 | 0.00 | 0.00 | 0.00 | 75 | 1011.0 |
| 20260906120940 | 26 | 0 | 0.0 | 0.0 | 0.00 | 0.00 | 0.00 | 74 | 1010.8 |
| 20260906120139 | 26 | 0 | 0.0 | 0.0 | 0.00 | 0.00 | 0.00 | 74 | 1010.8 |
| 20260906115339 | 26 | 0 | 0.0 | 0.0 | 0.00 | 0.00 | 0.00 | 74 | 1010.8 |
| 20260906114538 | 26 | 0 | 0.0 | 0.0 | 0.00 | 0.00 | 0.00 | 74 | 1010.9 |
| 20260906113738 | 26 | 0 | 0.0 | 0.0 | 0.00 | 0.00 | 0.00 | 74 | 1010.8 |
| 20260906112940 | 26 | 0 | 0.0 | 0.0 | 0.00 | 0.00 | 0.00 | 74 | 1010.8 |
| 20260906112140 | 26 | 0 | 0.0 | 0.0 | 0.00 | 0.00 | 0.00 | 74 | 1010.7 |
| 20260906111339 | 26 | 0 | 0.0 | 0.0 | 0.00 | 0.00 | 0.00 | 73 | 1010.7 |
| 20260906110539 | 26 | 0 | 0.0 | 0.0 | 0.00 | 0.00 | 0.00 | 73 | 1010.6 |
| 20260906105739 | 26 | 0 | 0.0 | 0.0 | 0.00 | 0.00 | 0.00 | 74 | 1010.5 |
| 20260906104938 | 26 | 0 | 0.0 | 0.0 | 0.00 | 0.00 | 0.00 | 73 | 1010.6 |
| 20260906104138 | 26 | 0 | 0.0 | 0.0 | 0.00 | 0.00 | 0.00 | 73 | 1010.5 |
| 20260906103340 | 26 | 0 | 0.0 | 0.0 | 0.00 | 0.00 | 0.00 | 72 | 1010.4 |
| 20260906102539 | 26 | 0 | 0.0 | 0.0 | 0.00 | 0.00 | 0.00 | 73 | 1010.4 |
| 20260906101739 | 26 | 0 | 0.0 | 0.0 | 0.00 | 0.00 | 0.00 | 71 | 1010.4 |
| 20260906100939 | 26 | 0 | 0.0 | 0.0 | 0.00 | 0.00 | 0.00 | 71 | 1010.4 |
| 20260906100138 | 26 | 0 | 0.0 | 0.0 | 0.00 | 0.00 | 0.00 | 70 | 1010.3 |
| 20260906095338 | 26 | 0 | 0.0 | 0.0 | 0.00 | 0.00 | 0.00 | 70 | 1010.4 |
| 20260906094540 | 26 | 0 | 0.0 | 0.0 | 0.00 | 0.00 | 0.00 | 70 | 1010.3 |
| 20260906093739 | 26 | 0 | 0.0 | 0.0 | 0.00 | 0.00 | 0.00 | 70 | 1010.3 |
| 20260906092941 | 26 | 0 | 0.0 | 0.0 | 0.00 | 0.00 | 0.00 | 71 | 1010.3 |
| 20260906092139 | 27 | 0 | 0.0 | 0.0 | 0.00 | 0.00 | 0.00 | 71 | 1010.2 |
| 20260906091338 | 27 | 0 | 0.0 | 0.0 | 0.00 | 0.00 | 0.00 | 71 | 1010.3 |
| 20260906090538 | 27 | 0 | 0.0 | 0.0 | 0.00 | 0.00 | 0.00 | 71 | 1010.2 |
| 20260906085740 | 26 | 0 | 0.0 | 0.0 | 0.00 | 0.00 | 0.00 | 71 | 1010.1 |
| 20260906084940 | 26 | 0 | 0.0 | 0.0 | 0.00 | 0.00 | 0.00 | 71 | 1010.1 |
| 20260906084139 | 26 | 0 | 0.0 | 0.0 | 0.00 | 0.00 | 0.00 | 71 | 1010.1 |
| 20260906083339 | 27 | 0 | 0.0 | 0.0 | 0.00 | 0.00 | 0.00 | 71 | 1010.0 |
| 20260906082539 | 27 | 0 | 0.0 | 0.0 | 0.00 | 0.00 | 0.00 | 71 | 1010.0 |
| 20260906081739 | 27 | 0 | 0.0 | 0.0 | 0.00 | 0.00 | 0.00 | 70 | 1010.0 |
| 20260906080938 | 27 | 0 | 0.0 | 0.0 | 0.00 | 0.00 | 0.00 | 69 | 1010.0 |
| 20260906080140 | 27 | 0 | 0.0 | 0.0 | 0.00 | 0.00 | 0.00 | 69 | 1010.0 |
| 20260906075340 | 27 | 0 | 0.0 | 0.0 | 0.00 | 0.00 | 0.00 | 68 | 1010.0 |
| 20260906074539 | 27 | 0 | 0.0 | 0.0 | 0.00 | 0.00 | 0.00 | 68 | 1010.0 |
| 20260906073739 | 27 | 0 | 0.0 | 0.0 | 0.00 | 0.00 | 0.00 | 68 | 1009.9 |
| 20260906072939 | 27 | 0 | 0.0 | 0.0 | 0.00 | 0.00 | 0.00 | 67 | 1009.8 |
| 20260906072138 | 28 | 0 | 0.0 | 0.0 | 0.00 | 0.00 | 0.00 | 67 | 1009.8 |
| 20260906071338 | 28 | 0 | 0.0 | 0.0 | 0.00 | 0.00 | 0.00 | 67 | 1009.9 |
| 20260906070540 | 28 | 0 | 0.0 | 0.0 | 0.00 | 0.00 | 0.00 | 65 | 1009.9 |
| 20260906065739 | 28 | 0 | 0.0 | 0.0 | 0.00 | 0.00 | 0.00 | 66 | 1009.9 |
| 20260906064939 | 28 | 0 | 0.0 | 0.0 | 0.00 | 0.00 | 0.00 | 66 | 1010.0 |
| 20260906064139 | 28 | 0 | 0.0 | 0.0 | 0.00 | 0.00 | 0.00 | 66 | 1010.2 |
| 20260906063338 | 28 | 0 | 0.0 | 0.0 | 0.00 | 0.00 | 0.00 | 65 | 1010.2 |
| 20260906062538 | 28 | 0 | 0.0 | 0.0 | 0.00 | 0.00 | 0.00 | 65 | 1010.3 |
| 20260906061740 | 29 | 0 | 0.0 | 0.0 | 0.00 | 0.00 | 0.00 | 64 | 1010.2 |
| 20260906060939 | 29 | 0 | 0.0 | 0.0 | 0.00 | 0.00 | 0.00 | 64 | 1010.2 |
| 20260906060139 | 29 | 0 | 0.0 | 0.0 | 0.00 | 0.00 | 0.00 | 64 | 1010.2 |
| 20260906055339 | 29 | 0 | 0.0 | 0.0 | 0.00 | 0.00 | 0.00 | 64 | 1010.3 |
| 20260906054539 | 29 | 0 | 0.0 | 0.0 | 0.00 | 0.00 | 0.00 | 64 | 1010.3 |
| 20260906053738 | 29 | 0 | 0.0 | 0.0 | 0.00 | 0.00 | 0.00 | 64 | 1010.4 |
| 20260906052938 | 30 | 0 | 0.0 | 0.0 | 0.00 | 0.00 | 0.00 | 64 | 1010.4 |
| 20260906052140 | 30 | 0 | 0.0 | 0.0 | 0.00 | 0.00 | 0.00 | 64 | 1010.4 |
| 20260906051339 | 30 | 0 | 0.0 | 0.0 | 0.00 | 0.00 | 0.00 | 64 | 1010.4 |
| 20260906050539 | 30 | 0 | 0.0 | 0.0 | 0.00 | 0.00 | 0.00 | 65 | 1010.3 |
| 20260906045739 | 30 | 0 | 0.0 | 0.0 | 0.00 | 0.00 | 0.00 | 65 | 1010.3 |
| 20260906044939 | 30 | 0 | 0.0 | 0.0 | 0.00 | 0.00 | 0.00 | 64 | 1010.3 |
| 20260906044138 | 30 | 0 | 0.0 | 0.0 | 0.00 | 0.00 | 0.00 | 63 | 1010.4 |
| 20260906043340 | 30 | 0 | 0.0 | 0.0 | 0.00 | 0.00 | 0.00 | 63 | 1010.4 |
| 20260906042539 | 30 | 0 | 0.0 | 0.0 | 0.00 | 0.00 | 0.00 | 62 | 1010.4 |
| 20260906041739 | 30 | 0 | 0.0 | 0.0 | 0.00 | 0.00 | 0.00 | 62 | 1010.2 |
| 20260906040939 | 30 | 0 | 0.0 | 0.0 | 0.00 | 0.00 | 0.00 | 62 | 1010.1 |
| 20260906040139 | 30 | 0 | 0.0 | 0.0 | 0.00 | 0.00 | 0.00 | 62 | 1010.1 |
| 20260906035338 | 31 | 0 | 0.0 | 0.0 | 0.00 | 0.00 | 0.00 | 61 | 1010.1 |
| 20260906034538 | 31 | 0 | 0.0 | 0.0 | 0.00 | 0.00 | 0.00 | 61 | 1010.0 |
| 20260906033740 | 31 | 0 | 0.0 | 0.0 | 0.00 | 0.00 | 0.00 | 61 | 1009.9 |
| 20260906032939 | 30 | 0 | 0.0 | 0.0 | 0.00 | 0.00 | 0.00 | 62 | 1009.9 |
| 20260906032139 | 30 | 0 | 0.0 | 0.0 | 0.00 | 0.00 | 0.00 | 62 | 1009.8 |
| 20260906031339 | 31 | 0 | 0.0 | 0.0 | 0.00 | 0.00 | 0.00 | 62 | 1009.8 |
| 20260906030538 | 31 | 0 | 0.0 | 0.0 | 0.00 | 0.00 | 0.00 | 62 | 1009.8 |
| 20260906025738 | 31 | 0 | 0.0 | 0.0 | 0.00 | 0.00 | 0.00 | 62 | 1009.6 |
| 20260906024940 | 31 | 0 | 0.0 | 0.0 | 0.00 | 0.00 | 0.00 | 62 | 1009.5 |
| 20260906024140 | 31 | 0 | 0.0 | 0.0 | 0.00 | 0.00 | 0.00 | 62 | 1009.3 |
| 20260906023339 | 31 | 0 | 0.0 | 0.0 | 0.00 | 0.00 | 0.00 | 61 | 1009.3 |
| 20260906022539 | 31 | 0 | 0.0 | 0.0 | 0.00 | 0.00 | 0.00 | 61 | 1009.1 |
| 20260906021739 | 31 | 0 | 0.0 | 0.0 | 0.00 | 0.00 | 0.00 | 60 | 1009.0 |
| 20260906020938 | 31 | 0 | 0.0 | 0.0 | 0.00 | 0.00 | 0.00 | 59 | 1008.9 |
| 20260906020138 | 32 | 0 | 0.0 | 0.0 | 0.00 | 0.00 | 0.00 | 59 | 1008.9 |
| 20260906015340 | 32 | 0 | 0.0 | 0.0 | 0.00 | 0.00 | 0.00 | 58 | 1008.8 |
| 20260906014539 | 32 | 0 | 0.0 | 0.0 | 0.00 | 0.00 | 0.00 | 57 | 1008.7 |
| 20260906013739 | 32 | 0 | 0.0 | 0.0 | 0.00 | 0.00 | 0.00 | 57 | 1008.7 |
| 20260906012939 | 32 | 0 | 0.0 | 0.0 | 0.00 | 0.00 | 0.00 | 56 | 1008.4 |
| 20260906012138 | 33 | 0 | 0.0 | 0.0 | 0.00 | 0.00 | 0.00 | 55 | 1008.4 |
| 20260906011338 | 33 | 0 | 0.0 | 0.0 | 0.00 | 0.00 | 0.00 | 55 | 1008.3 |
| 20260906010539 | 33 | 0 | 0.0 | 0.0 | 0.00 | 0.00 | 0.00 | 54 | 1008.4 |
| 20260906005739 | 33 | 0 | 0.0 | 0.0 | 0.00 | 0.00 | 0.00 | 54 | 1008.4 |
| 20260906004939 | 33 | 0 | 0.0 | 0.0 | 0.00 | 0.00 | 0.00 | 53 | 1008.4 |
| 20260906004138 | 33 | 0 | 0.0 | 0.0 | 0.00 | 0.00 | 0.00 | 53 | 1008.4 |
| 20260906003338 | 34 | 0 | 0.0 | 0.0 | 0.00 | 0.00 | 0.00 | 51 | 1008.3 |
| 20260906002540 | 34 | 0 | 0.0 | 0.0 | 0.00 | 0.00 | 0.00 | 50 | 1008.4 |
| 20260906001739 | 35 | 0 | 0.0 | 0.0 | 0.00 | 0.00 | 0.00 | 50 | 1008.4 |
| 20260906000939 | 35 | 0 | 0.0 | 0.0 | 0.00 | 0.00 | 0.00 | 48 | 1008.3 |
| 20260906000139 | 35 | 0 | 0.0 | 0.0 | 0.00 | 0.00 | 0.00 | 47 | 1008.3 |
| 20260905235338 | 35 | 0 | 0.0 | 0.0 | 0.00 | 0.00 | 0.00 | 47 | 1008.3 |
| 20260905234538 | 36 | 0 | 0.0 | 0.0 | 0.00 | 0.00 | 0.00 | 46 | 1008.2 |
| 20260905233740 | 36 | 0 | 0.0 | 0.0 | 0.00 | 0.00 | 0.00 | 45 | 1008.1 |
| 20260905232940 | 36 | 0 | 0.0 | 0.0 | 0.00 | 0.00 | 0.00 | 45 | 1008.1 |
| 20260905232139 | 36 | 0 | 0.0 | 0.0 | 0.00 | 0.00 | 0.00 | 41 | 1008.1 |
| 20260905231339 | 37 | 0 | 0.0 | 0.0 | 0.00 | 0.00 | 0.00 | 38 | 1008.0 |
| 20260905230539 | 37 | 0 | 0.0 | 0.0 | 0.00 | 0.00 | 0.00 | 42 | 1008.1 |
| 20260905225738 | 37 | 0 | 0.0 | 0.0 | 0.00 | 0.00 | 0.00 | 39 | 1008.2 |
| 20260905224938 | 37 | 0 | 0.0 | 0.0 | 0.00 | 0.00 | 0.00 | 37 | 1008.1 |
| 20260905224140 | 38 | 0 | 0.0 | 0.0 | 0.00 | 0.00 | 0.00 | 36 | 1008.1 |
| 20260905223340 | 38 | 0 | 0.0 | 0.0 | 0.00 | 0.00 | 0.00 | 35 | 1008.2 |
| 20260905222539 | 38 | 0 | 0.0 | 0.0 | 0.00 | 0.00 | 0.00 | 35 | 1008.2 |
| 20260905221739 | 39 | 110 | 0.0 | 1.6 | 0.00 | 0.00 | 0.00 | 33 | 1008.2 |
| 20260905220939 | 38 | 0 | 0.0 | 0.0 | 0.00 | 0.00 | 0.00 | 35 | 1008.3 |
| 20260905220138 | 38 | 0 | 0.0 | 0.0 | 0.00 | 0.00 | 0.00 | 34 | 1008.3 |
| 20260905215338 | 38 | 104 | 0.0 | 4.8 | 0.00 | 0.00 | 0.00 | 35 | 1008.5 |
| 20260905214540 | 38 | 104 | 0.0 | 1.6 | 0.00 | 0.00 | 0.00 | 36 | 1008.5 |
| 20260905213739 | 38 | 95 | 0.0 | 1.6 | 0.00 | 0.00 | 0.00 | 36 | 1008.5 |
| 20260905212939 | 37 | 173 | 0.0 | 8.0 | 0.00 | 0.00 | 0.00 | 35 | 1008.6 |
| 20260905212139 | 37 | 0 | 0.0 | 0.0 | 0.00 | 0.00 | 0.00 | 36 | 1008.8 |
| 20260905211338 | 37 | 0 | 0.0 | 0.0 | 0.00 | 0.00 | 0.00 | 37 | 1008.8 |
| 20260905210538 | 37 | 0 | 0.0 | 0.0 | 0.00 | 0.00 | 0.00 | 38 | 1008.9 |
| 20260905205740 | 37 | 0 | 0.0 | 0.0 | 0.00 | 0.00 | 0.00 | 39 | 1009.1 |
| 20260905204939 | 36 | 0 | 0.0 | 0.0 | 0.00 | 0.00 | 0.00 | 40 | 1009.1 |
| 20260905204139 | 36 | 0 | 0.0 | 0.0 | 0.00 | 0.00 | 0.00 | 41 | 1009.2 |
| 20260905203339 | 36 | 173 | 0.0 | 4.8 | 0.00 | 0.00 | 0.00 | 41 | 1009.4 |
| 20260905202538 | 36 | 175 | 3.2 | 8.0 | 0.00 | 0.00 | 0.00 | 39 | 1009.6 |
| 20260905201738 | 37 | 184 | 4.8 | 12.9 | 0.00 | 0.00 | 0.00 | 40 | 1009.7 |
| 20260905200940 | 37 | 181 | 6.4 | 12.9 | 0.00 | 0.00 | 0.00 | 40 | 1009.8 |
| 20260905200139 | 37 | 179 | 3.2 | 11.3 | 0.00 | 0.00 | 0.00 | 39 | 1009.8 |
| 20260905195339 | 37 | 0 | 0.0 | 0.0 | 0.00 | 0.00 | 0.00 | 40 | 1009.9 |
| 20260905194538 | 37 | 129 | 0.0 | 3.2 | 0.00 | 0.00 | 0.00 | 41 | 1009.9 |
| 20260905193738 | 36 | 0 | 0.0 | 0.0 | 0.00 | 0.00 | 0.00 | 41 | 1010.0 |
| 20260905192938 | 36 | 166 | 0.0 | 4.8 | 0.00 | 0.00 | 0.00 | 42 | 1010.0 |
| 20260905192140 | 36 | 140 | 1.6 | 6.4 | 0.00 | 0.00 | 0.00 | 41 | 1010.2 |
| 20260905191340 | 37 | 152 | 1.6 | 8.0 | 0.00 | 0.00 | 0.00 | 41 | 1010.2 |
| 20260905190539 | 36 | 185 | 3.2 | 9.7 | 0.00 | 0.00 | 0.00 | 41 | 1010.3 |
| 20260905185739 | 36 | 253 | 1.6 | 8.0 | 0.00 | 0.00 | 0.00 | 42 | 1010.4 |
| 20260905184939 | 36 | 255 | 1.6 | 8.0 | 0.00 | 0.00 | 0.00 | 41 | 1010.5 |
| 20260905184138 | 36 | 210 | 1.6 | 6.4 | 0.00 | 0.00 | 0.00 | 42 | 1010.5 |
| 20260905183340 | 37 | 210 | 1.6 | 8.0 | 0.00 | 0.00 | 0.00 | 42 | 1010.6 |
| 20260905182540 | 37 | 232 | 1.6 | 8.0 | 0.00 | 0.00 | 0.00 | 41 | 1010.8 |
| 20260905181739 | 36 | 310 | 0.0 | 8.0 | 0.00 | 0.00 | 0.00 | 42 | 1010.9 |